Location: Gro�bocka
(50.8204°N, 11.9702°E)
Time: 07:44:14
(UTC+00:00)

Cosmos 1697 Rocket - Pass Details

Date: 29 October 2020
Orbit: 831 x 845 km, 71.0° (Epoch: 01 December)

Event Time Altitude Azimuth Distance (km) Brightness Sun altitude
Rises 18:50:54 0° 228° (SW) 3,370 6.3 -28.7°
Reaches altitude 10° 18:53:25 10° 234° (SW) 2,442 5.5 -29.1°
Maximum altitude 18:58:48 47° 308° (NW) 1,100 3.5 -29.9°
Enters shadow 19:01:25 28° 5° (N) 1,529 4.1 -30.3°
